"Time","Temp","Dewpoint","Humidity","Pressure","Direction","Speed","Gust","Precip","PrecipRate"
"00:04:58","56.7","53.5","89","30.20","311","0","0","0.00","0.00"
"00:09:56","56.6","53.4","89","30.20","311","0","0","0.00","0.00"
"00:14:58","56.4","53.2","89","30.20","311","0","0","0.00","0.00"
"00:19:57","56.4","53.4","90","30.20","311","0","0","0.00","0.00"
"00:24:57","56.3","53.4","90","30.20","311","0","0","0.00","0.00"
"00:29:56","56.2","53","89.1","30.20","311","0","0","0.00","0.00"
"00:34:57","56.1","52.9","89","30.20","311","0","0","0.00","0.00"
"00:39:57","56","53.1","90","30.20","311","0","0","0.00","0.00"
"00:44:57","55.8","52.9","90","30.20","311","0","0","0.00","0.00"
"00:49:57","55.7","52.8","90","30.20","311","0","0","0.00","0.00"
"00:54:57","55.6","52.7","90","30.20","311","0","0","0.00","0.00"
"00:59:56","55.5","52.6","90","30.20","311","0","0","0.00","0.00"
"01:04:56","55.3","52.5","90.1","30.20","311","0","0","0.00","0.00"
"01:09:59","55.3","52.7","91","30.20","311","0","0","0.00","0.00"
"01:14:56","55.2","52.6","91","30.20","311","0","0","0.00","0.00"
"01:19:56","55.1","52.5","91","30.20","311","0","0","0.00","0.00"
"01:24:56","55","52.4","91","30.20","311","0","0","0.00","0.00"
"01:29:59","54.9","52.3","91","30.20","311","0","0","0.00","0.00"
"01:34:56","54.9","52.3","91","30.20","311","0","0","0.00","0.00"
"01:39:56","54.8","52.5","91.9","30.20","311","0","0","0.00","0.00"
"01:44:57","54.8","52.4","92","30.20","311","0","0","0.00","0.00"
"01:49:57","54.7","52.2","91.2","30.20","311","0","0","0.00","0.00"
"01:54:57","54.8","52.5","92","30.20","311","0","0","0.00","0.00"
"01:59:56","54.9","52.6","92","30.21","311","0","0","0.00","0.00"
"02:04:57","54.9","52.3","91.1","30.21","311","0","0","0.00","0.00"
"02:09:59","54.7","52.1","91","30.21","311","0","0","0.00","0.00"
"02:14:56","54.7","52.1","91.1","30.21","311","0","0","0.00","0.00"
"02:19:59","54.6","52.2","91.5","30.20","311","0","0","0.00","0.00"
"02:24:58","54.6","52.3","92","30.20","311","0","0","0.00","0.00"
"02:29:57","54.6","52.3","92","30.20","311","0","0","0.00","0.00"
"02:34:57","54.6","52.3","92","30.20","311","0","0","0.00","0.00"
"02:39:57","54.5","52.2","92","30.20","311","0","0","0.00","0.00"
"02:44:57","54.4","52.1","92","30.20","311","0","0","0.00","0.00"
"02:49:56","54.3","52","92","30.20","311","0","0","0.00","0.00"
"02:54:56","54.3","52","92","30.20","311","0","0","0.00","0.00"
"02:59:59","54.2","51.9","92","30.20","311","0","0","0.00","0.00"
"03:04:57","54.2","51.9","92","30.20","311","0","0","0.00","0.00"
"03:09:56","54.1","51.8","92","30.20","311","0","0","0.00","0.00"
"03:14:57","54.1","51.8","92","30.21","311","0","0","0.00","0.00"
"03:19:56","54","51.7","92","30.21","311","0","0","0.00","0.00"
"03:24:56","54","51.7","92","30.21","311","0","0","0.00","0.00"
"03:29:59","53.9","51.6","92","30.21","311","0","0","0.00","0.00"
"03:34:59","53.8","51.5","92","30.21","311","0","0","0.00","0.00"
"03:39:56","53.7","51.4","92","30.21","311","0","0","0.00","0.00"
"03:44:56","53.7","51.5","92.5","30.22","311","0.1","1.2","0.00","0.00"
"03:49:59","53.8","51.6","92.4","30.22","311","0","0","0.00","0.00"
"03:54:56","53.7","51.5","92.2","30.22","311","0","0","0.00","0.00"
"03:59:57","53.7","51.6","92.6","30.22","311","0","0","0.00","0.00"
"04:04:57","53.7","51.4","92","30.22","311","0","0","0.00","0.00"
"04:09:56","53.7","51.4","92.2","30.22","311","0","1.2","0.00","0.00"
"04:14:57","53.6","51.3","92","30.22","311","0","0","0.00","0.00"
"04:19:58","53.6","51.3","92","30.22","311","0","0","0.00","0.00"
"04:24:56","53.6","51.3","92","30.22","311","0","0","0.00","0.00"
"04:29:56","53.5","51.2","92","30.22","311","0","0","0.00","0.00"
"04:34:56","53.5","51.2","92","30.22","311","0","0","0.00","0.00"
"04:39:56","53.5","51.3","92.2","30.22","311","0","0","0.00","0.00"
"04:44:56","53.5","51.2","92","30.22","311","0","0","0.00","0.00"
"04:49:59","53.5","51.2","92","30.22","311","0","0","0.00","0.00"
"04:54:59","53.5","51.2","92","30.22","311","0","0","0.00","0.00"
"04:59:58","53.5","51.2","92","30.23","311","0","0","0.00","0.00"
"05:04:58","53.4","51.1","92","30.23","311","0","0","0.00","0.00"
"05:09:57","53.4","51.1","92","30.23","311","0","0","0.00","0.00"
"05:14:57","53.4","51.1","92","30.23","311","0","0","0.00","0.00"
"05:19:57","53.4","51.1","92","30.23","311","0","0","0.00","0.00"
"05:24:57","53.3","51","92","30.23","311","0.2","2.4","0.00","0.00"
"05:29:56","53.2","50.9","92","30.24","311","0","0","0.00","0.00"
"05:34:59","53.2","51.2","92.9","30.24","311","0","0","0.00","0.00"
"05:39:59","53.3","51.3","93","30.24","311","0","0","0.00","0.00"
"05:44:58","53.3","51.3","93","30.24","311","0","0","0.00","0.00"
"05:49:57","53.2","51.2","93","30.24","311","0","0","0.00","0.00"
"05:54:57","53.2","51.2","93","30.24","311","0","0","0.00","0.00"
"05:59:56","53.2","51.2","93","30.24","311","0","0","0.00","0.00"
"06:04:56","53.3","51.3","93","30.24","311","0","0","0.00","0.00"
"06:09:59","53.2","51.2","93","30.24","311","0","0","0.00","0.00"
"06:14:56","53.2","51.2","93","30.24","311","0.1","3.6","0.00","0.00"
"06:19:58","53.3","51.3","93","30.24","311","1.2","3.6","0.00","0.00"
"06:24:58","53.4","51.2","92.3","30.24","311","0","1.2","0.00","0.00"
"06:29:57","53.5","51.2","92","30.24","311","0.3","2.4","0.00","0.00"
"06:34:56","53.6","51.3","92","30.24","311","0.2","2.4","0.00","0.00"
"06:39:56","53.6","51.3","92","30.24","311","0.1","2.4","0.00","0.00"
"06:44:59","53.5","51.2","92","30.24","311","1","3.6","0.00","0.00"
"06:49:58","53.5","51.2","92","30.24","311","0.9","2.4","0.00","0.00"
"06:54:57","53.5","51.2","92","30.24","311","0.4","2.4","0.00","0.00"
"06:59:56","53.4","51.1","92","30.25","311","0","1.2","0.00","0.00"
"07:04:56","53.4","51.1","92","30.25","311","0.1","2.4","0.00","0.00"
"07:09:59","53.3","51","92","30.25","311","0.4","2.4","0.00","0.00"
"07:14:56","53.4","51.1","92","30.25","313","2","4.8","0.00","0.00"
"07:19:59","53.5","51.2","92","30.25","320","1.9","4.8","0.00","0.00"
"07:24:59","53.7","51.4","92","30.25","320","1.8","4.6","0.00","0.00"
"07:29:58","54","51.4","91.1","30.26","320","0.7","2.4","0.00","0.00"
"07:34:57","54.4","51.8","91","30.26","320","0.3","2.4","0.00","0.00"
"07:39:58","54.9","52.1","90.3","30.26","320","0.2","1.2","0.00","0.00"
"07:44:58","55.4","52.3","89.2","30.26","320","0.7","2.4","0.00","0.00"
"07:49:57","55.9","52.4","88.1","30.26","320","0.8","3.6","0.00","0.00"
"07:54:56","56","52.4","87.4","30.26","326","1.7","4.8","0.00","0.00"
"07:59:57","56.2","52.4","87","30.26","329","0.8","3.6","0.00","0.00"
"08:04:59","56.5","52.7","87","30.26","328","0.6","2.4","0.00","0.00"
"08:09:57","56.8","52.8","86.3","30.26","326","0.5","2.4","0.00","0.00"
"08:14:57","57.2","53","86","30.26","326","0.1","1.2","0.00","0.00"
"08:19:56","57.6","53.2","85.4","30.26","326","0.8","4.8","0.00","0.00"
"08:24:59","57.9","53.3","84.6","30.26","326","0.8","4.6","0.00","0.00"
"08:29:57","58.2","53.5","84.2","30.26","326","0","1.2","0.00","0.00"
"08:34:56","58.7","53.8","84","30.26","326","0","1.2","0.00","0.00"
"08:39:56","59.3","54.2","83.2","30.26","326","0.1","2.4","0.00","0.00"
"08:44:56","59.8","54.1","81.4","30.27","326","0.7","3.6","0.00","0.00"
"08:49:58","60.2","54","80.2","30.27","326","1.3","3.6","0.00","0.00"
"08:54:57","60.5","54.4","80.1","30.27","326","1.4","3.6","0.00","0.00"
"08:59:56","61.2","55.2","80.8","30.27","326","0.7","2.4","0.00","0.00"
"09:04:56","62","55.7","79.9","30.27","326","1.3","2.4","0.00","0.00"
"09:09:58","62.7","55.6","77.5","30.27","326","0.7","2.4","0.00","0.00"
"09:14:58","63.2","56","77.1","30.28","326","1","3.6","0.00","0.00"
"09:19:57","63.8","56.4","76.8","30.28","326","0.4","2.3","0.00","0.00"
"09:24:56","64.4","56.5","75.4","30.28","325","1.1","3.6","0.00","0.00"
"09:29:59","65.1","56.6","74.1","30.28","339","1.6","7.2","0.00","0.00"
"09:34:58","65.5","56.1","71.7","30.28","343","3.4","7.2","0.00","0.00"
"09:39:56","65.6","55.7","70.5","30.28","316","3.3","6.9","0.00","0.00"
"09:44:59","65.8","56","70.6","30.28","332","3.6","7.2","0.00","0.00"
"09:49:59","66.3","56.1","69.8","30.28","341","2.2","4.8","0.00","0.00"
"09:54:58","66.8","56.8","70.2","30.28","339","2.2","6","0.00","0.00"
"09:59:56","67.3","56.5","68.3","30.28","344","2.7","8.4","0.00","0.00"
"10:04:56","67.1","56.3","68.3","30.28","345","3.4","8.4","0.00","0.00"
"10:09:59","67.3","56.1","67.4","30.28","343","4.7","8.4","0.00","0.00"
"10:14:59","67.8","56.4","66.9","30.29","330","2.9","7.2","0.00","0.00"
"10:19:58","67.8","55.8","65.5","30.29","344","4","8.4","0.00","0.00"
"10:24:57","67.7","55.9","65.8","30.29","345","4","10.8","0.00","0.00"
"10:29:56","68.1","55.7","64.5","30.29","323","3.1","7.2","0.00","0.00"
"10:34:56","68.9","56.5","64.5","30.29","330","2.9","8.4","0.00","0.00"
"10:39:56","69","56.2","63.7","30.29","292","2.8","6.9","0.00","0.00"
"10:44:59","69.3","56.3","63.3","30.29","337","3.6","7.2","0.00","0.00"
"10:49:58","69.2","56.3","63.3","30.29","322","3","7.2","0.00","0.00"
"10:54:57","69.2","56.4","63.7","30.29","343","4.2","8.4","0.00","0.00"
"10:59:56","69.3","56.4","63.5","30.29","341","5.2","10.8","0.00","0.00"
"11:04:56","69.3","56.4","63.7","30.29","333","4.2","8.4","0.00","0.00"
"11:09:58","69.8","56.5","62.8","30.29","340","4.9","10.8","0.00","0.00"
"11:14:59","70.1","56.3","61.8","30.29","346","2.2","6.9","0.00","0.00"
"11:19:58","70.3","56.1","60.6","30.29","345","5.3","12","0.00","0.00"
"11:24:57","70.5","56.7","61.8","30.29","325","2.9","12","0.00","0.00"
"11:29:56","70.9","56.3","59.9","30.29","343","3.8","12","0.00","0.00"
"11:34:59","71.6","56.6","59.3","30.28","334","4.7","13.2","0.00","0.00"
"11:39:59","72.4","57.1","58.6","30.28","345","3.8","10.8","0.00","0.00"
"11:44:59","73.1","58","59.1","30.28","313","1.5","8.1","0.00","0.00"
"11:49:58","73.3","57.5","57.7","30.28","220","1.4","4.8","0.00","0.00"
"11:54:58","73.2","57.5","57.8","30.28","55","1.5","6","0.00","0.00"
"11:59:59","73.2","56.8","56.5","30.28","325","3","7.2","0.00","0.00"
"12:04:59","73.5","56.6","55.8","30.28","335","2.3","6.9","0.00","0.00"
"12:09:57","74.1","58.1","57.6","30.28","344","0.5","2.4","0.00","0.00"
"12:14:59","74.4","57.6","55.8","30.28","344","0.5","2.4","0.00","0.00"
"12:19:59","75","58.1","55.7","30.28","330","1","4.8","0.00","0.00"
"12:24:59","75.5","57.7","54.1","30.28","341","1.6","6","0.00","0.00"
"12:29:59","75.8","57.7","53.3","30.28","322","1.9","7.2","0.00","0.00"
"12:34:56","74.8","56.1","52.3","30.28","271","1.9","6.9","0.00","0.00"
"12:39:57","75.4","57.7","54.1","30.28","242","1","2.4","0.00","0.00"
"12:44:58","76.2","58.3","54","30.28","328","1.4","4.8","0.00","0.00"
"12:49:58","76.7","57.9","52.4","30.27","348","1.3","3.6","0.00","0.00"
"12:54:59","77.3","57.4","50.4","30.27","31","1.2","3.6","0.00","0.00"
"12:59:56","77.3","56","47.9","30.27","348","2.3","10.8","0.00","0.00"
"13:04:56","76.9","55.8","48.1","30.27","347","1.1","5.8","0.00","0.00"
"13:09:59","77.1","55.3","47","30.27","354","2.2","7.2","0.00","0.00"
"13:14:56","77.1","55.6","47.7","30.27","329","2.9","7.2","0.00","0.00"
"13:19:56","77.3","53.8","44.2","30.27","340","4.4","12","0.00","0.00"
"13:24:57","77","54.5","45.7","30.27","13","2.2","9.2","0.00","0.00"
"13:29:58","76.9","55.7","48","30.27","121","1","3.5","0.00","0.00"
"13:34:58","76.8","53.9","45.1","30.27","25","0.9","6","0.00","0.00"
"13:39:59","77.4","54.7","45.6","30.27","355","1.1","5.8","0.00","0.00"
"13:44:56","77.2","55.1","46.5","30.27","20","0.8","3.6","0.00","0.00"
"13:49:57","77.3","54.5","45.5","30.26","126","1.2","3.6","0.00","0.00"
"13:54:57","76.6","54.6","46.6","30.26","8","1.2","7.2","0.00","0.00"
"13:59:58","76.3","54.1","46.3","30.26","317","2.3","7.2","0.00","0.00"
"14:04:58","76.8","52.9","43.6","30.26","314","3.4","8.4","0.00","0.00"
"14:09:56","77.2","54.5","45.4","30.26","325","1","4.8","0.00","0.00"
"14:14:58","78.1","55","45.2","30.26","344","1.9","7.2","0.00","0.00"
"14:19:57","77.1","52.5","42.5","30.26","339","1","6","0.00","0.00"
"14:24:56","77.1","52.8","42.9","30.26","323","4.1","8.4","0.00","0.00"
"14:29:56","77.1","52.6","42.5","30.26","332","3.5","8.4","0.00","0.00"
"14:34:57","77","52","41.9","30.25","307","2.8","8.1","0.00","0.00"
"14:39:59","77","52.1","42","30.25","333","1.8","6","0.00","0.00"
"14:44:59","77","53.2","43.7","30.25","320","2.7","7.2","0.00","0.00"
"14:49:56","77.1","53.6","44","30.25","317","2.5","9.6","0.00","0.00"
"14:54:56","77","52.7","42.9","30.25","331","3.1","7.2","0.00","0.00"
"14:59:57","76.5","52.5","43.2","30.25","332","4.2","12","0.00","0.00"
"15:04:57","76.3","52.4","43.4","30.25","341","4.4","10.8","0.00","0.00"
"15:09:59","76.3","53.1","44.6","30.25","335","2.4","8.1","0.00","0.00"
"15:14:58","76.5","52.6","43.4","30.25","333","2.8","7.2","0.00","0.00"
"15:19:58","76.6","53.6","44.8","30.25","333","2.4","8.4","0.00","0.00"
"15:24:59","76.4","53.1","44.5","30.25","344","2.2","8.1","0.00","0.00"
"15:29:59","76.4","53.5","45.1","30.25","345","1.8","3.6","0.00","0.00"
"15:34:56","77.2","54.1","44.7","30.25","339","2.3","6","0.00","0.00"
"15:39:57","77.6","54.9","45.5","30.25","333","1","4.8","0.00","0.00"
"15:44:58","77.5","53.7","43.7","30.25","338","2.3","6","0.00","0.00"
"15:49:58","77.3","53.6","43.8","30.24","337","2.7","6","0.00","0.00"
"15:54:59","77.3","53.5","43.6","30.24","341","4.5","8.4","0.00","0.00"
"15:59:59","77.3","53.7","44","30.24","336","2.8","8.1","0.00","0.00"
"16:04:56","77.4","53.8","44.1","30.23","318","1.6","3.6","0.00","0.00"
"16:09:58","77.7","54.8","45.3","30.23","342","1.2","4.8","0.00","0.00"
"16:14:56","77.8","54.3","44.4","30.23","342","3.2","7.2","0.00","0.00"
"16:19:56","78.1","54.7","44.6","30.23","336","2.2","6.9","0.00","0.00"
"16:24:56","78.1","53.9","43.2","30.23","337","2.9","6","0.00","0.00"
"16:29:57","77.3","53.2","43.2","30.23","328","4.2","10.8","0.00","0.00"
"16:34:58","77.1","53.2","43.5","30.22","330","3.8","10.8","0.00","0.00"
"16:39:57","76.9","53.5","44.2","30.22","346","3.8","10.4","0.00","0.00"
"16:44:59","76.9","53.5","44.3","30.23","311","1.3","5.8","0.00","0.00"
"16:49:59","76.7","53.2","44.1","30.23","305","1.2","4.8","0.00","0.00"
"16:54:56","76.6","53.5","44.8","30.23","327","0.9","4.8","0.00","0.00"
"16:59:56","76.5","52.7","43.6","30.23","337","1.9","6","0.00","0.00"
"17:04:57","76.4","52.7","43.6","30.22","331","2.2","4.8","0.00","0.00"
"17:09:59","76.2","52.8","44.2","30.22","330","2.6","4.8","0.00","0.00"
"17:14:57","75.7","52.5","44.5","30.22","352","2.8","4.8","0.00","0.00"
"17:19:57","75.4","52.7","45.2","30.22","353","2.2","6","0.00","0.00"
"17:24:57","75.2","52.7","45.5","30.22","337","2.3","6","0.00","0.00"
"17:29:57","75.1","52.5","45.5","30.22","326","1.7","5.8","0.00","0.00"
"17:34:57","74.9","52.7","45.9","30.22","326","1.1","3.6","0.00","0.00"
"17:39:59","75","53.4","47","30.22","326","0.8","3.6","0.00","0.00"
"17:44:56","75.3","52.9","45.6","30.22","326","0.9","3.6","0.00","0.00"
"17:49:57","75.6","53.1","45.7","30.22","325","1","4.8","0.00","0.00"
"17:54:57","75.8","53.4","45.9","30.22","325","2.1","4.8","0.00","0.00"
"17:59:57","75.7","52.5","44.4","30.22","325","1.6","3.6","0.00","0.00"
"18:04:57","75.5","52.5","44.6","30.22","325","0.5","2.4","0.00","0.00"
"18:09:55","75.3","52.1","44.3","30.22","325","1.5","4.8","0.00","0.00"
"18:14:57","74.9","52.1","45","30.22","325","1.3","3.6","0.00","0.00"
"18:19:57","74.6","52.5","46.2","30.22","325","0.5","3.6","0.00","0.00"
"18:24:58","74.2","52.1","46.2","30.22","326","1.2","3.5","0.00","0.00"
"18:29:58","73.8","51.9","46.3","30.22","328","0.3","2.3","0.00","0.00"
"18:34:59","73.5","52.5","47.9","30.22","328","0","1.2","0.00","0.00"
"18:39:56","73.1","53.1","49.6","30.22","328","0","1.2","0.00","0.00"
"18:44:58","72.6","53.1","50.4","30.22","328","0","0","0.00","0.00"
"18:49:59","72","53.5","52.1","30.22","328","0","0","0.00","0.00"
"18:54:59","71.2","53.5","53.5","30.22","328","0","0","0.00","0.00"
"18:59:56","70.4","53.6","55.3","30.22","328","0","0","0.00","0.00"
"19:04:57","69.6","54.2","58","30.22","328","0","0","0.00","0.00"
"19:09:59","68.8","54.6","60.6","30.22","328","0","0","0.00","0.00"
"19:14:58","68.1","54.5","61.6","30.23","328","0","0","0.00","0.00"
"19:19:58","67.6","54.3","62.4","30.23","328","0","0","0.00","0.00"
"19:24:56","67","54","63","30.23","328","0","0","0.00","0.00"
"19:29:56","66.5","53.9","63.9","30.23","328","0","0","0.00","0.00"
"19:34:58","66","53.7","64.5","30.23","328","0","0","0.00","0.00"
"19:39:59","65.6","53.5","65","30.23","328","0","0","0.00","0.00"
"19:44:56","65.2","53.1","65","30.23","328","0.1","1.2","0.00","0.00"
"19:49:57","64.9","53.3","66.1","30.23","328","0","0","0.00","0.00"
"19:54:58","64.6","53.6","67.6","30.23","328","0","0","0.00","0.00"
"19:59:59","64.3","53.8","68.7","30.23","328","0","0","0.00","0.00"
"20:04:59","64","53.6","69","30.23","328","0","0","0.00","0.00"
"20:09:58","63.6","53.2","69","30.23","328","0","0","0.00","0.00"
"20:14:56","63.3","53.2","69.7","30.24","328","0","0","0.00","0.00"
"20:19:56","63.1","53.8","71.8","30.24","328","0","0","0.00","0.00"
"20:24:59","62.8","53.8","72.4","30.24","328","0","0","0.00","0.00"
"20:29:58","62.7","54.2","73.7","30.24","328","0","0","0.00","0.00"
"20:34:59","62.5","54.1","74","30.24","328","0","0","0.00","0.00"
"20:39:57","62.3","54.2","74.5","30.24","328","0","1.2","0.00","0.00"
"20:44:58","62.2","54.2","75","30.24","328","0","1.2","0.00","0.00"
"20:49:58","62.1","54.2","75.2","30.24","328","0","0","0.00","0.00"
"20:54:56","62","54","75.1","30.24","328","0","0","0.00","0.00"
"20:59:56","61.8","54.2","76","30.24","328","0","0","0.00","0.00"
"21:04:57","61.5","54","76.2","30.24","328","0","0","0.00","0.00"
"21:09:59","61.2","53.8","76.7","30.24","328","0","0","0.00","0.00"
"21:14:57","61","54","77.8","30.24","328","0","0","0.00","0.00"
"21:19:57","60.6","53.7","78","30.24","328","0","0","0.00","0.00"
"21:24:58","60.4","53.7","78.6","30.24","328","0","0","0.00","0.00"
"21:29:59","60.2","53.7","79","30.24","328","0","0","0.00","0.00"
"21:34:56","60.2","53.7","79","30.24","328","0","0","0.00","0.00"
"21:39:57","60.1","53.6","79","30.24","328","0","0","0.00","0.00"
"21:44:58","60","53.6","79.4","30.24","328","0","0","0.00","0.00"
"21:49:58","59.7","53.5","80","30.24","328","0","0","0.00","0.00"
"21:54:59","59.5","53.3","80","30.24","328","0","0","0.00","0.00"
"21:59:56","59.3","53.4","80.7","30.24","328","0","1.2","0.00","0.00"
"22:04:56","59.2","52.9","79.5","30.24","328","0.1","1.2","0.00","0.00"
"22:09:59","59.2","52.1","77.4","30.24","328","0.5","3.6","0.00","0.00"
"22:14:57","59.5","51.4","74.4","30.24","328","0.9","3.6","0.00","0.00"
"22:19:57","60","51.1","72.6","30.24","328","0.2","3.6","0.00","0.00"
"22:24:58","60.4","51","71","30.24","328","0.2","3.5","0.00","0.00"
"22:29:58","60.7","51.5","71.9","30.24","328","0","0","0.00","0.00"
"22:34:59","60.7","51.2","70.8","30.24","328","0","0","0.00","0.00"
"22:39:56","61","50.7","68.9","30.24","328","0","0","0.00","0.00"
"22:44:57","61.3","50.3","67.2","30.24","328","0","0","0.00","0.00"
"22:49:57","61.8","50.2","65.8","30.24","325","0.2","1.2","0.00","0.00"
"22:54:58","62.1","50.3","65.1","30.24","323","0.2","2.4","0.00","0.00"
"22:59:58","62.3","50.4","65","30.24","323","0.1","1.2","0.00","0.00"
"23:04:59","62.3","50","64","30.24","323","0.2","1.2","0.00","0.00"
"23:09:57","62.3","50","64","30.24","323","0","1.2","0.00","0.00"
"23:14:59","62.2","49.9","64","30.24","323","0.2","2.4","0.00","0.00"
"23:19:59","62.2","49.9","64","30.24","323","0.2","2.4","0.00","0.00"
"23:24:56","62","49.8","64.2","30.24","323","0.5","3.6","0.00","0.00"
"23:29:56","61.9","49.5","63.8","30.24","323","0.3","3.6","0.00","0.00"
"23:34:57","61.7","49.2","63.4","30.24","324","0.4","2.4","0.00","0.00"
"23:39:59","61.6","48.9","63","30.24","324","0.1","1.2","0.00","0.00"
"23:44:56","61.5","48.9","63.1","30.25","324","0","1.2","0.00","0.00"
"23:49:57","61.3","49.4","65.2","30.25","324","0.2","1.2","0.00","0.00"
"23:54:58","60.8","49.7","66.7","30.25","324","0.2","2.4","0.00","0.00"
